Regional Weather Roundup
Issued by NWS

Home | Current Version | Previous Version | Graphics & Text | Print | Product List | Glossary On
Versions: 1 2 3 4 5 6 7 8 9 10 11 12 13 14 15 16 17 18 19 20 21 22 23 24 25 26 27 28 29 30 31 32 33 34 35 36 37 38 39 40 41 42 43 44 45 46 47 48 49 50
000
ASUS45 KSLC 301110
RWRUT

UTAH REGIONAL WEATHER ROUNDUP
NATIONAL WEATHER SERVICE SALT LAKE CITY UT
500 AM MDT THU JUL 30 2015

UTZ001>011-023>025-301200-

NORTHERN UTAH

CITY           SKY/WX    TMP DP  RH WIND       PRES   REMARKS
BRIGHAM CITY   CLEAR     53  38  55 CALM      30.27R
HILL AFB       NOT AVBL
LOGAN          CLEAR     47  35  63 CALM      30.31R
OGDEN          CLEAR     60  32  34 S6        30.26R
PROVO AIRPORT  CLEAR     61  30  31 CALM      30.29R
SALT LAKE CITY CLEAR     62  39  42 S8        30.25F
VERNAL         CLEAR     56  30  37 W7        30.31R
WENDOVER       CLEAR     64  36  34 SW5       30.26S
HEBER CITY     CLEAR     41  34  75 CALM      30.39R
WEST JORDAN    CLEAR     57  34  41 S3        30.28S

$$

UTZ012>022-026-027-301200-

SOUTHERN/CENTRAL UTAH

CITY           SKY/WX    TMP DP  RH WIND       PRES   REMARKS
BLANDING       CLEAR     59  46  60 CALM      30.43S
BRYCE CANYON   MOCLDY    48  31  51 W5        30.46S
CEDAR CITY     MOCLDY    63  24  22 S3        30.29R
DELTA          CLEAR     62  27  26 NE6       30.25S
HANKSVILLE     MOCLDY    61  30  31 NE7       30.24R
MILFORD        PTCLDY    58  21  24 CALM      30.25S
MOAB/CYNLANDS  CLEAR     62  24  23 W3        30.21R
PRICE          CLEAR     63  17  17 NW3       30.33R
ST GEORGE      SUNNY     81  34  18 CALM      30.09S
KANAB          PTCLDY    66  45  45 NE3       30.30R

$$

REGIONAL REPORTS     COLORADO/ARIZONA

CITY           SKY/WX    TMP DP  RH WIND       PRES   REMARKS
CRAIG, CO      CLEAR     38  29  70 CALM      30.41R
GRAND JUNCTION PTCLDY    61  29  29 SE9       30.25S
RIFLE          CLEAR     53  29  39 E3        30.35R
MONTROSE       CLEAR     55  34  45 SE7       30.35R
CORTEZ         CLEAR     53  47  79 CALM      30.36R
PAGE, AZ       PTCLDY    73  55  53 S7        30.21R
GRAND CANYON   CLOUDY    57  47  69 CALM      30.38S
KINGMAN        CLOUDY    77  57  50 SE7       30.12S
FLAGSTAFF      PTCLDY    54  50  86 CALM      30.40S

$$

REGIONAL REPORTS    NEVADA/IDAHO/WYOMING

CITY           SKY/WX    TMP DP  RH WIND       PRES   REMARKS
LAS VEGAS, NV  CLOUDY    88  52  29 S10       29.95S
ELY            CLEAR     46  22  38 S8        30.37S
ELKO           CLEAR     50  31  48 CALM      30.29S
POCATELLO, ID  CLEAR     46  39  76 E5        30.31R
BURLEY         CLEAR     48  42  80 S3        30.25S
EVANSTON, WY   CLEAR     51  25  36 CALM      30.45F
ROCK SPRINGS   PTCLDY    51  20  29 W8        30.42S
KEMMERER       PTCLDY    43  30  61 N10       30.47F

$$



USA.gov is the U.S. government's official web portal to all federal, state and local government web resources and services.